Location: Niedergestelen
(46.3129°N, 7.7822°E)
Time: 16:48:06
(UTC+00:00)

Cosmos 1741 - Visible Passes

Search period start: 24 June 2021 00:00
Search period end: 04 July 2021 00:00
Orbit: 768 x 794 km, 74.0° (Epoch: 24 June)

Date Brightness Start Highest point End Pass type
(mag) Time Alt. Az. Time Alt. Az. Time Alt. Az.
24 Jun 5.6 00:57:59 10° NNW 01:03:17 77° ENE 01:07:46 14° SSE visible
24 Jun 7.2 02:42:01 10° WNW 02:44:56 15° W 02:47:49 10° SW visible
25 Jun 6.2 00:25:04 10° NNW 00:30:12 51° ENE 00:34:35 14° SE visible
25 Jun 6.8 02:08:07 10° NW 02:12:11 23° W 02:15:04 15° SW visible
25 Jun 6.9 23:52:14 10° N 23:57:02 35° ENE 00:01:29 12° ESE visible
26 Jun 6.2 01:34:38 10° NW 01:39:23 35° WSW 01:41:59 22° SSW visible
26 Jun 7.4 23:19:31 10° N 23:23:48 25° NE 23:28:04 10° ESE visible
27 Jun 5.7 01:01:22 10° NNW 01:06:29 54° WSW 01:08:58 29° SSW visible
27 Jun 7.8 22:46:59 10° N 22:50:29 18° NE 22:53:58 10° E visible
28 Jun 5.4 00:28:15 10° NNW 00:33:33 82° WSW 00:36:02 32° SSE visible
28 Jun 7.5 02:13:42 10° WNW 02:14:58 11° W 02:16:13 10° WSW visible
28 Jun 8.0 22:14:50 10° NNE 22:17:05 13° NE 22:19:19 10° ENE visible
28 Jun 5.7 23:55:15 10° NNW 00:00:31 67° ENE 00:03:09 29° SE visible
29 Jun 7.1 01:38:54 10° NW 01:42:16 17° W 01:43:39 16° WSW visible
29 Jun 6.3 23:22:21 10° N 23:27:25 45° ENE 23:30:19 23° ESE visible
30 Jun 6.6 01:05:11 10° NW 01:09:30 26° W 01:10:50 24° WSW visible
30 Jun 6.9 22:49:33 10° N 22:54:14 31° ENE 22:57:32 17° ESE visible
01 Jul 6.1 00:31:47 10° NW 00:36:40 40° WSW 00:38:03 33° SW visible
01 Jul 7.4 22:16:54 10° N 22:20:58 22° NE 22:24:47 11° ESE visible
01 Jul 5.6 23:58:35 10° NNW 00:03:46 61° WSW 00:05:18 43° SSW visible
02 Jul 7.8 21:44:27 10° N 21:47:37 16° NE 21:50:47 10° E visible
02 Jul 5.4 23:25:30 10° NNW 23:30:47 88° ENE 23:32:35 43° SSE visible
03 Jul 7.5 01:10:06 10° WNW 01:12:19 13° W 01:13:07 12° WSW visible
03 Jul 8.0 21:12:34 10° NNE 21:14:11 11° NE 21:15:48 10° ENE visible
03 Jul 5.8 22:52:32 10° NNW 22:57:44 59° ENE 22:59:56 33° SE visible
